{"data":{"norad_id":61231,"epoch":"2026-05-25T04:10:31.282752Z","epoch_age_seconds":63589,"freshness":"FRESH","line1":"1 61231U 24173E   26145.17397318  .00001184  00000+0  59502-4 0  9995","line2":"2 61231  97.4121 217.7766 0001608  87.9780 272.1638 15.19182978 92268","mean_motion":15.19182978,"eccentricity":0.0001608,"inclination_deg":97.4121,"raan_deg":217.7766,"arg_perigee_deg":87.978,"mean_anomaly_deg":272.1638,"bstar":5.9502e-5,"rev_number":9226,"period_min":94.787791915346,"perigee_km":507.20120385777,"apogee_km":509.41588474482,"semimajor_km":6886.4455443013,"source":"CELESTRAK","updated_at":"2026-05-25T13:38:02.344607Z"}}